STARLINK-1749 (46589 NORAD) Tracking and Keplerian Element Data

This shows tracking and keplerian element data for the satellite.

Feedback or suggestion? Click here.




ElementValue
Catalog46589
NameSTARLINK-1749
Epoch Orbit999
Epoch Day339.00002315
Epoch Year2020
RAAN154.9655
Inclination53.0005
Eccentricity0.0002428
Argument of Perigee25.8395
Mean Anonmoly250.343
Mean Motion15.6273255
Decay Rate0.00017769
L11 46589U 20070BK 20339.00002315 .00017769 00000-0 19962-3 0 9999
L22 46589 53.0005 154.9655 0002428 25.8395 250.3430 15.62732550 9990

Live tracking and technical data element details for STARLINK-1749 (NORAD 46589). STARLINK-1749 can be tracked NOW for your location showing map with azimuth and elevation plus other details from your city location.

Track the satellite on the map from your city or location and see movement details for azimuth, elevation, latitude, longitude, range, height, and movement on the map or in text.







IsCatalogInMostPopularTable: catalog: 46589, numindb: 18
Update: records affected: 1



GetName: 46589 STARLINK-1749

Hit Count: updated at: Sun, 06 Dec 2020 01:40:57 GMT